When you browse on this site, cookies collect data to enhance your experience and personalize the content and advertising you see.
Visit our Privacy Policy to learn more. By continuing to use the site, you agree to this use of cookies and data.
  • In Latvia
  • List of Countries
  • For 7 days
  • Water Temperature
  • Satellite Maps
  • Weather Map
  • Weather Widgets
  • user-avatar
    Login

    Hourly Weather Tulsa

    Today, 17 July, Wednesday

    Time Temperature Precipitation Wind Pressure Humidity
    00:00 +29°C° 0 mm 4 mps 741 mmHg 82%
    01:00 +29°C° 0 mm 4 mps 741 mmHg 83%
    02:00 +29°C° 0 mm 4 mps 741 mmHg 83%
    03:00 +29°C° 0 mm 4 mps 740 mmHg 83%
    04:00 +28°C° 0 mm 4 mps 740 mmHg 83%
    05:00 +28°C° 0 mm 4 mps 741 mmHg 82%
    06:00 +28°C° 0 mm 4 mps 741 mmHg 74%
    07:00 +29°C° 0 mm 5 mps 741 mmHg 71%
    08:00 +30°C° 0 mm 5 mps 742 mmHg 69%
    09:00 +32°C° 0 mm 6 mps 742 mmHg 66%
    10:00 +34°C° 0 mm 6 mps 742 mmHg 63%
    11:00 +35°C° 0 mm 6 mps 742 mmHg 60%
    12:00 +36°C° 0 mm 6 mps 742 mmHg 57%
    13:00 +38°C° 0 mm 6 mps 741 mmHg 55%
    14:00 +38°C° 0 mm 6 mps 741 mmHg 53%
    15:00 +39°C° 0 mm 6 mps 741 mmHg 51%
    16:00 +38°C° 0 mm 6 mps 740 mmHg 55%
    17:00 +36°C° 0 mm 5 mps 740 mmHg 59%
    18:00 +35°C° 0 mm 5 mps 740 mmHg 63%
    19:00 +34°C° 0 mm 5 mps 740 mmHg 65%
    20:00 +33°C° 0 mm 6 mps 740 mmHg 67%
    21:00 +32°C° 0 mm 6 mps 740 mmHg 68%
    22:00 +32°C° 0 mm 6 mps 740 mmHg 70%
    23:00 +30°C° 0 mm 6 mps 740 mmHg 71%

    Tomorrow, 18 July, Thursday

    Time Temperature Precipitation Wind Pressure Humidity
    00:00 +29°C° 0 mm 5 mps 741 mmHg 73%
    01:00 +29°C° 0 mm 5 mps 740 mmHg 73%
    02:00 +29°C° 0 mm 5 mps 740 mmHg 74%
    03:00 +29°C° 0 mm 5 mps 740 mmHg 74%
    04:00 +28°C° 0 mm 5 mps 740 mmHg 75%
    05:00 +28°C° 0 mm 5 mps 740 mmHg 77%
    06:00 +28°C° 0 mm 6 mps 740 mmHg 78%
    07:00 +29°C° 0 mm 6 mps 740 mmHg 75%
    08:00 +30°C° 0 mm 7 mps 740 mmHg 72%
    09:00 +33°C° 0 mm 7 mps 741 mmHg 69%
    10:00 +34°C° 0 mm 7 mps 741 mmHg 65%
    11:00 +35°C° 0 mm 7 mps 740 mmHg 61%
    12:00 +36°C° 0 mm 7 mps 740 mmHg 58%
    13:00 +38°C° 0 mm 7 mps 740 mmHg 56%
    14:00 +38°C° 0 mm 7 mps 739 mmHg 54%
    15:00 +39°C° 0 mm 7 mps 739 mmHg 52%
    16:00 +38°C° 0 mm 7 mps 739 mmHg 55%
    17:00 +36°C° 0 mm 6 mps 738 mmHg 59%
    18:00 +35°C° 0 mm 6 mps 738 mmHg 63%
    19:00 +34°C° 0 mm 6 mps 738 mmHg 64%
    20:00 +33°C° 0 mm 6 mps 739 mmHg 65%
    21:00 +32°C° 0 mm 6 mps 739 mmHg 66%
    22:00 +30°C° 0 mm 6 mps 739 mmHg 67%
    23:00 +30°C° 0 mm 6 mps 739 mmHg 67%

    Day after tomorrow, 19 July, Friday

    Time Temperature Precipitation Wind Pressure Humidity
    00:00 +29°C° 0 mm 6 mps 739 mmHg 68%
    01:00 +29°C° 0 mm 6 mps 739 mmHg 68%
    02:00 +29°C° 0 mm 5 mps 739 mmHg 69%
    03:00 +28°C° 0 mm 5 mps 739 mmHg 69%
    04:00 +28°C° 0 mm 5 mps 739 mmHg 72%
    05:00 +28°C° 0 mm 5 mps 739 mmHg 74%
    06:00 +28°C° 0 mm 5 mps 739 mmHg 76%
    07:00 +29°C° 0 mm 5 mps 740 mmHg 74%
    08:00 +30°C° 0 mm 6 mps 740 mmHg 72%
    09:00 +32°C° 0 mm 7 mps 740 mmHg 69%
    10:00 +33°C° 0 mm 6 mps 740 mmHg 66%
    11:00 +35°C° 0 mm 6 mps 740 mmHg 62%
    12:00 +36°C° 0 mm 6 mps 740 mmHg 59%
    13:00 +36°C° 0 mm 6 mps 740 mmHg 57%
    14:00 +38°C° 0 mm 6 mps 740 mmHg 55%
    15:00 +38°C° 0 mm 7 mps 740 mmHg 54%
    16:00 +38°C° 0 mm 6 mps 739 mmHg 58%
    17:00 +36°C° 0 mm 6 mps 739 mmHg 62%
    18:00 +35°C° 0 mm 6 mps 739 mmHg 65%
    19:00 +34°C° 0 mm 6 mps 739 mmHg 67%
    20:00 +33°C° 0 mm 6 mps 739 mmHg 69%
    21:00 +30°C° 0 mm 6 mps 740 mmHg 71%
    22:00 +30°C° 0 mm 6 mps 740 mmHg 73%
    23:00 +29°C° 0 mm 5 mps 740 mmHg 76%

    20 July, Saturday

    Time Temperature Precipitation Wind Pressure Humidity
    00:00 +28°C° 0 mm 5 mps 740 mmHg 78%
    01:00 +28°C° 0 mm 5 mps 739 mmHg 77%
    02:00 +28°C° 0 mm 5 mps 739 mmHg 76%
    03:00 +27°C° 0 mm 5 mps 739 mmHg 75%
    04:00 +27°C° 0 mm 5 mps 739 mmHg 77%
    05:00 +27°C° 0 mm 5 mps 740 mmHg 78%
    06:00 +27°C° 0 mm 5 mps 740 mmHg 79%
    07:00 +28°C° 0 mm 5 mps 740 mmHg 76%
    08:00 +29°C° 0 mm 6 mps 740 mmHg 73%
    09:00 +32°C° 0 mm 7 mps 741 mmHg 70%
    10:00 +33°C° 0 mm 7 mps 741 mmHg 66%
    11:00 +35°C° 0 mm 6 mps 740 mmHg 62%
    12:00 +36°C° 0 mm 6 mps 740 mmHg 57%
    13:00 +36°C° 0 mm 6 mps 740 mmHg 56%
    14:00 +38°C° 0 mm 6 mps 740 mmHg 54%
    15:00 +39°C° 0 mm 6 mps 739 mmHg 52%
    16:00 +38°C° 0 mm 6 mps 739 mmHg 55%
    17:00 +36°C° 0 mm 5 mps 739 mmHg 59%
    18:00 +35°C° 0 mm 5 mps 738 mmHg 62%
    19:00 +34°C° 0 mm 5 mps 739 mmHg 64%
    20:00 +32°C° 0 mm 5 mps 739 mmHg 65%
    21:00 +30°C° 0 mm 5 mps 739 mmHg 67%
    22:00 +29°C° 0 mm 5 mps 739 mmHg 68%
    23:00 +28°C° 0 mm 5 mps 739 mmHg 70%

    21 July, Sunday

    Time Temperature Precipitation Wind Pressure Humidity
    00:00 +28°C° 0 mm 4 mps 739 mmHg 72%
    01:00 +27°C° 0 mm 5 mps 739 mmHg 73%
    02:00 +27°C° 0 mm 5 mps 739 mmHg 74%
    03:00 +27°C° 0 mm 5 mps 739 mmHg 76%
    04:00 +27°C° 0 mm 4 mps 739 mmHg 77%
    05:00 +26°C° 0 mm 4 mps 740 mmHg 77%
    06:00 +26°C° 0 mm 4 mps 740 mmHg 78%
    07:00 +28°C° 0 mm 5 mps 740 mmHg 75%
    08:00 +29°C° 0 mm 5 mps 740 mmHg 71%
    09:00 +32°C° 0 mm 6 mps 741 mmHg 68%
    10:00 +34°C° 0 mm 6 mps 741 mmHg 64%
    11:00 +35°C° 0 mm 5 mps 741 mmHg 59%
    12:00 +36°C° 0 mm 5 mps 740 mmHg 55%
    13:00 +37°C° 0 mm 5 mps 740 mmHg 52%
    14:00 +39°C° 0 mm 5 mps 740 mmHg 50%
    15:00 +39°C° 0 mm 5 mps 739 mmHg 48%
    16:00 +39°C° 0 mm 5 mps 739 mmHg 51%
    17:00 +37°C° 0 mm 4 mps 739 mmHg 54%
    18:00 +36°C° 0 mm 4 mps 739 mmHg 57%
    19:00 +35°C° 0 mm 4 mps 739 mmHg 58%
    20:00 +34°C° 0 mm 5 mps 739 mmHg 58%
    21:00 +32°C° 0 mm 5 mps 740 mmHg 58%
    22:00 +30°C° 0.5 mm 4 mps 740 mmHg 63%
    23:00 +29°C° 0.5 mm 4 mps 740 mmHg 68%

    22 July, Monday

    Time Temperature Precipitation Wind Pressure Humidity
    00:00 +27°C° 0.5 mm 3 mps 740 mmHg 73%
    01:00 +27°C° 0.9 mm 2 mps 741 mmHg 76%
    02:00 +27°C° 0.9 mm 2 mps 741 mmHg 79%
    03:00 +26°C° 0.9 mm 1 mps 742 mmHg 82%
    04:00 +26°C° 0.1 mm 3 mps 742 mmHg 85%
    05:00 +25°C° 0.1 mm 4 mps 743 mmHg 87%
    06:00 +24°C° 0.1 mm 6 mps 743 mmHg 90%
    07:00 +26°C° 0 mm 5 mps 743 mmHg 84%
    08:00 +27°C° 0 mm 3 mps 744 mmHg 78%
    09:00 +29°C° 0 mm 2 mps 744 mmHg 73%
    10:00 +29°C° 0 mm 3 mps 744 mmHg 71%
    11:00 +30°C° 0 mm 4 mps 744 mmHg 69%
    12:00 +32°C° 0 mm 6 mps 744 mmHg 67%
    13:00 +32°C° 0.1 mm 5 mps 744 mmHg 67%
    14:00 +32°C° 0.1 mm 5 mps 744 mmHg 66%
    15:00 +33°C° 0.1 mm 5 mps 744 mmHg 66%
    16:00 +32°C° 0.3 mm 5 mps 744 mmHg 69%
    17:00 +30°C° 0.3 mm 5 mps 744 mmHg 71%
    18:00 +29°C° 0.3 mm 6 mps 744 mmHg 74%
    19:00 +28°C° 0 mm 5 mps 744 mmHg 74%
    20:00 +27°C° 0 mm 5 mps 745 mmHg 75%
    21:00 +26°C° 0 mm 4 mps 745 mmHg 75%
    22:00 +25°C° 0 mm 4 mps 745 mmHg 77%
    23:00 +23°C° 0 mm 4 mps 745 mmHg 80%
    Show more